{"data":{"norad_id":52900,"epoch":"2026-09-20T09:25:22.267776Z","epoch_age_seconds":144388,"freshness":"FRESH","line1":"1 52900U 22065G   26263.39261884  .00000311  00000+0  71737-4 0  9994","line2":"2 52900  98.2404  45.4771 0008856  89.3008 270.9208 14.61928871224359","mean_motion":14.61928871,"eccentricity":0.0008856,"inclination_deg":98.2404,"raan_deg":45.4771,"arg_perigee_deg":89.3008,"mean_anomaly_deg":270.9208,"bstar":7.1737e-5,"rev_number":22435,"period_min":98.500004245419,"perigee_km":680.69584488277,"apogee_km":693.2095317387,"semimajor_km":7065.0896883107,"source":"CELESTRAK","updated_at":"2026-09-21T09:00:08.761043Z"}}